Weather Roundup
Issued by NWS Springfield, MO

Home | Current Version | Previous Version | Text Only | Print | Product List | Glossary On
Versions: 1 2 3 4 5 6 7 8 9 10 11 12 13 14 15 16 17 18 19 20 21 22 23 24 25 26 27 28 29 30 31 32 33 34 35 36 37 38 39 40 41 42 43 44 45 46 47 48 49 50
000
NZUS99 KSGF 241859
HRRSGF

HOURLY WEATHER
NATIONAL WEATHER SERVICE SPRINGFIELD MO
200 PM CDT FRI OCT 24 2014

......SGF CWA......

CITY           SKY/WX    TMP DP  RH WIND       PRES   REMARKS
SPRINGFIELD    PTSUNNY   73  59  61 W8        30.08F
JOPLIN         CLOUDY    74  60  61 SW10      30.07F
WEST PLAINS    MOSUNNY   70  56  61 W8        30.11F
ROLLA          PTSUNNY   67  57  70 SW7       30.07F
OSAGE BEACH    PTSUNNY   73  55  53 SW7       30.06F
BRANSON        CLOUDY    77  59  53 NW8       30.11F

......SURROUNDING SGF CWA......

CITY           SKY/WX    TMP DP  RH WIND       PRES   REMARKS
CHANUTE        CLOUDY    72  61  68 S10       30.04F
PARSONS        CLOUDY    74  62  66 S8        30.06F
COFFEYVILLE    CLOUDY    73  61  65 S9        30.05F
EMPORIA        CLOUDY    74  62  66 SW15      30.01F
SILOAM SPRINGS PTSUNNY   73  57  56 SW6       30.11F
HARRISON AR    MOSUNNY   74  59  59 W6        30.10F
NEAR YELLVILLE MOSUNNY   72  55  56 CALM      30.11F

......KANSAS AND MISSOURI......

CITY           SKY/WX    TMP DP  RH WIND       PRES   REMARKS
KANSAS CTY INT CLOUDY    72  63  73 S14       29.98F
DOWNTOWN KC    CLOUDY    75  62  64 SW12      29.98F
COLUMBIA       PTSUNNY   71  60  68 S10       30.04F
SEDALIA        PTSUNNY   72  59  63 S14       30.04F
ST JOSEPH      CLOUDY    72  62  71 SW13      29.96F
ST LOUIS       PTSUNNY   72  52  49 S6        30.06F
SPIRIT OF STL  PTSUNNY   71  52  50 VRB6      30.05F
KIRKSVILLE     CLOUDY    64  61  90 S13       29.99F FOG
WICHITA        MOSUNNY   79  62  56 SW12      30.02F
TOPEKA         CLOUDY    75  63  66 SW9       29.98F
OLATHE         CLOUDY    73  63  70 SW9       30.00F

......TENNESSEE......

CITY           SKY/WX    TMP DP  RH WIND       PRES   REMARKS
MEMPHIS        MOSUNNY   73  51  46 N7        30.11F
NASHVILLE      MOSUNNY   70  43  37 VRB6      30.09F

......ARKANSAS.......

CITY           SKY/WX    TMP DP  RH WIND       PRES   REMARKS
FAYETTEVILLE   MOSUNNY   73  59  61 SW8       30.10F
FT SMITH       SUNNY     75  56  51 S6        30.09F
LITTLE ROCK    MOSUNNY   77  50  38 NW5       30.12F

......OKLAHOMA.......

CITY           SKY/WX    TMP DP  RH WIND       PRES   REMARKS
TULSA          CLOUDY    77  60  55 S12       30.05F
PONCA CITY     CLOUDY    78  61  55 SW6       30.04F
MCALESTER      PTSUNNY   78  58  49 S8        30.10F
OKLAHOMA CITY  MOSUNNY   82  62  50 S13       30.07F

......IOWA............

CITY           SKY/WX    TMP DP  RH WIND       PRES   REMARKS
DES MOINES     CLOUDY    64  60  87 S9        29.91F FOG
QUAD CITIES    SUNNY     67  50  54 S10       29.97F

......ILLINOIS........

CITY           SKY/WX    TMP DP  RH WIND       PRES   REMARKS
QUINCY         PTSUNNY   60  56  86 S9        30.03F
CHICAGO        MOSUNNY   64  48  56 VRB5      29.99F




USA.gov is the U.S. government's official web portal to all federal, state and local government web resources and services.